IGO848 VOCB-VOMM

Flight info

Callsign IGO848
Flight time 0h 40m
Altitude 29000
Route SAPUM W114 KKP
Aircraft A20N/M-SDE2E3FGHIRWXY/LB1

Departure

Time 2026-05-08 17:42
Airport Coimbatore International Airport (VOCB)

Arrival

Time 2026-05-08 18:22
Airport Chennai International Airport (VOMM)
Time Latitude Longitude Altitude Speed Heading
2026-05-08 17:20 11.03050 77.04040 1278 ft 0 kts 315°
2026-05-08 17:35 11.03034 77.04056 1280 ft 4 kts 311°
2026-05-08 17:35 11.03017 77.04077 1281 ft 4 kts 299°
2026-05-08 17:35 11.03009 77.04101 1279 ft 4 kts 251°
2026-05-08 17:35 11.03013 77.04110 1282 ft 0 kts 225°
2026-05-08 17:38 11.03008 77.04105 1281 ft 5 kts 225°
2026-05-08 17:38 11.02971 77.04066 1278 ft 10 kts 225°
2026-05-08 17:38 11.02913 77.04081 1277 ft 11 kts 135°
2026-05-08 17:38 11.02846 77.04125 1277 ft 10 kts 184°
2026-05-08 17:39 11.02814 77.04091 1276 ft 8 kts 229°
2026-05-08 17:39 11.02766 77.04042 1276 ft 12 kts 224°
2026-05-08 17:39 11.02689 77.03962 1278 ft 20 kts 225°
2026-05-08 17:39 11.02584 77.03854 1277 ft 23 kts 225°
2026-05-08 17:40 11.02468 77.03733 1278 ft 24 kts 226°
2026-05-08 17:40 11.02361 77.03623 1279 ft 19 kts 217°
2026-05-08 17:40 11.02284 77.03595 1278 ft 8 kts 198°
2026-05-08 17:40 11.02265 77.03558 1279 ft 7 kts 296°
2026-05-08 17:41 11.02297 77.03558 1278 ft 12 kts 26°
2026-05-08 17:41 11.02370 77.03627 1279 ft 16 kts 46°
2026-05-08 17:41 11.02459 77.03720 1278 ft 24 kts 45°
2026-05-08 17:41 11.02721 77.03995 1276 ft 87 kts 44°
2026-05-08 17:42 11.03285 77.04568 1278 ft 140 kts 46°
2026-05-08 17:42 11.04000 77.05338 1702 ft 144 kts 46°
2026-05-08 17:42 11.04696 77.06180 2008 ft 165 kts 50°
2026-05-08 17:42 11.05423 77.07155 2453 ft 179 kts 54°
2026-05-08 17:43 11.06346 77.08029 2978 ft 184 kts 35°
2026-05-08 17:43 11.07474 77.08660 3551 ft 188 kts 34°
2026-05-08 17:43 11.08396 77.09569 4194 ft 181 kts 55°
2026-05-08 17:43 11.09134 77.10627 4879 ft 184 kts 60°
2026-05-08 17:44 11.09807 77.11765 5510 ft 195 kts 60°
2026-05-08 17:44 11.10575 77.12987 5977 ft 215 kts 58°
2026-05-08 17:44 11.11446 77.14332 6363 ft 240 kts 58°
2026-05-08 17:44 11.12409 77.15813 6840 ft 262 kts 58°
2026-05-08 17:45 11.13441 77.17405 7473 ft 274 kts 57°
2026-05-08 17:45 11.14491 77.19030 8399 ft 275 kts 57°
2026-05-08 17:45 11.15546 77.20668 9308 ft 278 kts 57°
2026-05-08 17:45 11.16615 77.22330 10166 ft 282 kts 57°
2026-05-08 17:46 11.17720 77.24053 10592 ft 302 kts 57°
2026-05-08 17:46 11.18901 77.25892 10823 ft 326 kts 57°
2026-05-08 17:46 11.20164 77.27861 11348 ft 336 kts 57°
2026-05-08 17:46 11.21450 77.29866 12084 ft 341 kts 56°
2026-05-08 17:47 11.22754 77.31899 12838 ft 345 kts 56°
2026-05-08 17:47 11.24075 77.33958 13567 ft 349 kts 56°
2026-05-08 17:47 11.25413 77.36045 14213 ft 354 kts 56°
2026-05-08 17:47 11.26326 77.37468 14624 ft 357 kts 56°
2026-05-08 17:48 11.28143 77.40302 15448 ft 363 kts 56°
2026-05-08 17:48 11.29530 77.42466 16073 ft 367 kts 56°
2026-05-08 17:48 11.30932 77.44654 16704 ft 371 kts 57°
2026-05-08 17:48 11.32353 77.46873 17242 ft 376 kts 57°
2026-05-08 17:49 11.33789 77.49114 17928 ft 378 kts 57°
2026-05-08 17:49 11.35238 77.51378 18419 ft 384 kts 57°
2026-05-08 17:49 11.36707 77.53672 18887 ft 388 kts 57°
2026-05-08 17:49 11.38180 77.55972 19457 ft 389 kts 57°
2026-05-08 17:50 11.39672 77.58304 19883 ft 395 kts 57°
2026-05-08 17:50 11.41182 77.60664 20379 ft 399 kts 57°
2026-05-08 17:50 11.42708 77.63049 20811 ft 403 kts 57°
2026-05-08 17:50 11.44223 77.65418 21328 ft 406 kts 57°
2026-05-08 17:51 11.45772 77.67842 21769 ft 410 kts 57°
2026-05-08 17:51 11.47335 77.70287 22230 ft 413 kts 56°
2026-05-08 17:51 11.48911 77.72754 22699 ft 417 kts 57°
2026-05-08 17:51 11.50502 77.75243 23128 ft 421 kts 56°
2026-05-08 17:52 11.52108 77.77757 23563 ft 424 kts 56°
2026-05-08 17:52 11.53726 77.80291 23945 ft 427 kts 56°
2026-05-08 17:52 11.56991 77.85405 24694 ft 433 kts 57°
2026-05-08 17:53 11.58636 77.87983 25047 ft 436 kts 57°
2026-05-08 17:53 11.60296 77.90584 25422 ft 438 kts 57°
2026-05-08 17:53 11.61962 77.93195 25762 ft 441 kts 57°
2026-05-08 17:53 11.63640 77.95827 26107 ft 443 kts 57°
2026-05-08 17:54 11.65353 77.98468 26368 ft 449 kts 56°
2026-05-08 17:54 11.67105 78.01117 26726 ft 450 kts 56°
2026-05-08 17:54 11.68864 78.03767 27085 ft 453 kts 56°
2026-05-08 17:54 11.70632 78.06438 27367 ft 455 kts 56°
2026-05-08 17:55 11.72406 78.09124 27738 ft 457 kts 56°
2026-05-08 17:55 11.74191 78.11829 27991 ft 461 kts 56°
2026-05-08 17:55 11.75979 78.14543 28365 ft 462 kts 56°
2026-05-08 17:55 11.77778 78.17275 28633 ft 465 kts 56°
2026-05-08 17:56 11.79559 78.19983 28897 ft 467 kts 56°
2026-05-08 17:56 11.83164 78.25468 28941 ft 464 kts 56°
2026-05-08 17:57 11.86765 78.30947 28940 ft 464 kts 56°
2026-05-08 17:57 11.90371 78.36425 28942 ft 464 kts 56°
2026-05-08 17:58 11.93979 78.41907 28940 ft 464 kts 56°
2026-05-08 17:58 11.97580 78.47385 28944 ft 464 kts 56°
2026-05-08 17:59 12.01158 78.52831 28944 ft 464 kts 56°
2026-05-08 17:59 12.04760 78.58316 28944 ft 464 kts 56°
2026-05-08 18:00 12.08359 78.63800 28944 ft 464 kts 56°
2026-05-08 18:00 12.13753 78.72025 28944 ft 464 kts 56°
2026-05-08 18:01 12.17346 78.77507 28872 ft 464 kts 56°
2026-05-08 18:01 12.19143 78.80252 28475 ft 465 kts 56°
2026-05-08 18:01 12.20943 78.83001 27754 ft 467 kts 56°
2026-05-08 18:02 12.22756 78.85770 26903 ft 469 kts 56°
2026-05-08 18:02 12.23953 78.87599 26525 ft 465 kts 56°
2026-05-08 18:02 12.26342 78.91250 25703 ft 459 kts 56°
2026-05-08 18:02 12.28105 78.93946 25081 ft 455 kts 56°
2026-05-08 18:03 12.29854 78.96621 24472 ft 451 kts 56°
2026-05-08 18:03 12.31590 78.99276 23861 ft 447 kts 56°
2026-05-08 18:03 12.33312 79.01911 23198 ft 444 kts 56°
2026-05-08 18:03 12.35013 79.04513 22627 ft 437 kts 56°
2026-05-08 18:04 12.36693 79.07084 22027 ft 431 kts 56°
2026-05-08 18:04 12.38351 79.09620 21430 ft 426 kts 56°
2026-05-08 18:04 12.39990 79.12131 20840 ft 421 kts 56°
2026-05-08 18:04 12.41609 79.14612 20210 ft 417 kts 56°
2026-05-08 18:05 12.43215 79.17073 19659 ft 413 kts 56°
2026-05-08 18:05 12.44785 79.19481 19070 ft 410 kts 56°
2026-05-08 18:05 12.46360 79.21896 18492 ft 406 kts 57°
2026-05-08 18:05 12.47924 79.24294 17865 ft 403 kts 56°
2026-05-08 18:06 12.49465 79.26659 17279 ft 397 kts 56°
2026-05-08 18:06 12.50989 79.28998 16707 ft 392 kts 56°
2026-05-08 18:06 12.52489 79.31302 16133 ft 387 kts 56°
2026-05-08 18:06 12.53975 79.33582 15571 ft 383 kts 56°
2026-05-08 18:07 12.55447 79.35844 15006 ft 379 kts 56°
2026-05-08 18:07 12.56900 79.38082 14445 ft 376 kts 55°
2026-05-08 18:07 12.58340 79.40303 13880 ft 373 kts 55°
2026-05-08 18:07 12.59768 79.42506 13262 ft 370 kts 55°
2026-05-08 18:08 12.61181 79.44683 12750 ft 364 kts 56°
2026-05-08 18:08 12.62573 79.46830 12216 ft 360 kts 56°
2026-05-08 18:08 12.63948 79.48949 11689 ft 355 kts 56°
2026-05-08 18:08 12.65308 79.51048 11161 ft 352 kts 56°
2026-05-08 18:09 12.66650 79.53119 10733 ft 345 kts 57°
2026-05-08 18:09 12.67946 79.55120 10573 ft 327 kts 57°
2026-05-08 18:09 12.69149 79.56976 10397 ft 307 kts 57°
2026-05-08 18:09 12.70291 79.58740 10229 ft 287 kts 57°
2026-05-08 18:10 12.71359 79.60389 10083 ft 268 kts 57°
2026-05-08 18:10 12.72356 79.61930 9952 ft 251 kts 57°
2026-05-08 18:10 12.73289 79.63371 9761 ft 237 kts 57°
2026-05-08 18:10 12.74190 79.64766 9328 ft 234 kts 57°
2026-05-08 18:11 12.75087 79.66153 8841 ft 233 kts 58°
2026-05-08 18:11 12.75982 79.67539 8377 ft 232 kts 58°
2026-05-08 18:11 12.76864 79.68904 8049 ft 229 kts 58°
2026-05-08 18:11 12.77753 79.70280 7733 ft 232 kts 58°
2026-05-08 18:12 12.78641 79.71653 7418 ft 230 kts 58°
2026-05-08 18:12 12.79526 79.73012 7086 ft 228 kts 57°
2026-05-08 18:12 12.80416 79.74373 6782 ft 231 kts 57°
2026-05-08 18:12 12.81304 79.75728 6549 ft 224 kts 57°
2026-05-08 18:13 12.82149 79.77018 6457 ft 212 kts 57°
2026-05-08 18:13 12.82951 79.78244 6295 ft 205 kts 58°
2026-05-08 18:13 12.83739 79.79451 5927 ft 203 kts 58°
2026-05-08 18:13 12.84523 79.80651 5521 ft 202 kts 58°
2026-05-08 18:14 12.85291 79.81828 5159 ft 201 kts 58°
2026-05-08 18:14 12.86064 79.83013 4796 ft 199 kts 58°
2026-05-08 18:14 12.86736 79.84241 4433 ft 196 kts 69°
2026-05-08 18:14 12.87204 79.85518 4181 ft 188 kts 70°
2026-05-08 18:15 12.87657 79.86699 4132 ft 168 kts 69°
2026-05-08 18:15 12.88096 79.87760 4006 ft 158 kts 69°
2026-05-08 18:15 12.88519 79.88840 3943 ft 164 kts 70°
2026-05-08 18:15 12.88926 79.89923 3874 ft 162 kts 70°
2026-05-08 18:16 12.89329 79.91003 3811 ft 163 kts 70°
2026-05-08 18:16 12.89734 79.92086 3738 ft 162 kts 70°
2026-05-08 18:16 12.90137 79.93163 3669 ft 161 kts 70°
2026-05-08 18:16 12.90540 79.94240 3603 ft 162 kts 70°
2026-05-08 18:17 12.90942 79.95316 3534 ft 161 kts 70°
2026-05-08 18:17 12.91345 79.96392 3465 ft 161 kts 70°
2026-05-08 18:17 12.91746 79.97466 3395 ft 162 kts 70°
2026-05-08 18:17 12.92148 79.98539 3238 ft 161 kts 70°
2026-05-08 18:18 12.92547 79.99608 3069 ft 161 kts 70°
2026-05-08 18:18 12.92940 80.00658 2883 ft 157 kts 70°
2026-05-08 18:18 12.93337 80.01719 2688 ft 160 kts 70°
2026-05-08 18:18 12.93731 80.02772 2489 ft 160 kts 70°
2026-05-08 18:19 12.94127 80.03833 2304 ft 159 kts 69°
2026-05-08 18:19 12.94525 80.04896 2081 ft 160 kts 70°
2026-05-08 18:19 12.94921 80.05957 1890 ft 159 kts 69°
2026-05-08 18:19 12.95319 80.07019 1676 ft 157 kts 69°
2026-05-08 18:20 12.95692 80.08019 1486 ft 144 kts 69°
2026-05-08 18:20 12.96046 80.08965 1307 ft 145 kts 69°
2026-05-08 18:20 12.96405 80.09927 1118 ft 142 kts 68°
2026-05-08 18:20 12.96762 80.10881 955 ft 146 kts 69°
2026-05-08 18:21 12.97126 80.11854 781 ft 146 kts 69°
2026-05-08 18:21 12.97487 80.12819 593 ft 145 kts 69°
2026-05-08 18:21 12.97848 80.13787 391 ft 146 kts 70°
2026-05-08 18:21 12.98208 80.14756 209 ft 145 kts 70°
2026-05-08 18:22 12.98568 80.15719 51 ft 137 kts 69°
2026-05-08 18:22 12.98845 80.16437 51 ft 79 kts 68°
2026-05-08 18:22 12.98976 80.16787 53 ft 35 kts 64°
2026-05-08 18:22 12.99062 80.17016 54 ft 35 kts 66°
2026-05-08 18:23 12.99113 80.17169 51 ft 0 kts 89°
2026-05-08 18:23 12.99106 80.17180 53 ft 3 kts 131°
2026-05-08 18:23 12.99070 80.17206 50 ft 9 kts 154°
2026-05-08 18:23 12.98996 80.17240 54 ft 14 kts 168°
2026-05-08 18:24 12.98928 80.17188 52 ft 15 kts 247°
2026-05-08 18:24 12.98878 80.17068 55 ft 21 kts 251°
2026-05-08 18:24 12.98820 80.16909 48 ft 26 kts 243°
2026-05-08 18:24 12.98762 80.16756 54 ft 18 kts 243°
2026-05-08 18:25 12.98734 80.16726 55 ft 3 kts 194°
2026-05-08 18:25 12.98693 80.16732 52 ft 8 kts 154°
2026-05-08 18:25 12.98631 80.16758 55 ft 10 kts 186°
2026-05-08 18:25 12.98583 80.16730 53 ft 0 kts 217°
2026-05-08 18:26 12.98566 80.16724 55 ft 4 kts 187°
2026-05-08 18:26 12.98532 80.16735 54 ft 0 kts 160°
2026-05-08 18:26 12.98525 80.16738 55 ft 2 kts 161°
2026-05-08 18:26 12.98516 80.16741 52 ft 2 kts 160°
2026-05-08 18:27 12.98512 80.16743 53 ft 0 kts 160°